カタログに戻る

STARLINK-2130

運用中通信VLEO
NORAD 47405·PAYLOAD·🇺🇸 United States

打ち上げ Jan 20, 2021 から Cape Canaveral Space Force Station

Loading…

次のパス (今後24時間)

TLE

最新Source: CelesTrak SupGP

元期: Sep 15, 2026, 02:45 UTC

1 47405C 21005BJ  26258.11506944 -.00048698  00000+0 -15661-2 0  2586
2 47405  53.1585 260.8841 0001522  76.5102 146.0827 15.31723508    13

AllMySatでSTARLINK-2130をリアルタイム追跡

Download on the App Store